(471697) = 2012 TN242

Discovered at Kitt Peak on 2012-09-15 by Spacewatch.

Orbit

Orbit type: Main Belt

Note: WebGL enabled browser required.

epoch2023-09-13.0
epoch JD2460200.5
perihelion date2023-04-06.01608
perihelion JD2460040.51608
argument of perihelion (°)178.12420
ascending node (°)188.83837
inclination (°)9.58727
eccentricity0.0828069
perihelion distance (AU)2.8114773
Tisserand w.r.t. Jupiter3.2
ΔV w.r.t. Earth (km/sec)10.8
semimajor axis (AU)3.0653057
mean anomaly (°)29.38120
mean daily motion (°/day)0.18365090
aphelion distance (AU)3.319
period (years)5.37
P-vector [x]0.99255531
P-vector [y]0.10946393
P-vector [z]0.05340043
Q-vector [x]-0.11907608
Q-vector [y]0.96427484
Q-vector [z]0.23663246
absolute magnitude16.59
phase slope0.15
uncertainty0
referenceMPEC 2024-A74
observations used195
oppositions12
arc length (days)8120
first opposition used2001
last opposition used2024
residual rms (arc-secs)0.71
perturbers coarse indicatorM-v
perturbers precise indicator003Ek
first observation date used2001-10-14.0
last observation date used2024-01-07.0
computer nameMPCLINUX
JD of orbit computation2457574.990933
perihelion JD uncertainty (days)2.1525E-04
argument of perihelion uncertainty (°)4.4527E-05
ascending node uncertainty (°)2.5428E-05
inclination uncertainty (°)1.2965E-05
eccentricity uncertainty 1.2379E-07
perihelion distance uncertainty (AU)3.7305E-07
Minimum Orbit Intersection Distances (in AU)
for orbit epoch: 2460200.5, reference: E2024-A74
Mercury2.45278
Venus2.0871
Earth1.8094
Mars1.39924
Jupiter2.13478
Saturn6.0274
Uranus15.149
Neptune27.0015

Observations

200 total observations over interval: 2001 10 14.289910 – 2024 01 07.268851
These data are available for download (format description).

Date (UT) J2000 RA J2000 Dec Magn Location Ref
2001 10 14.289910 23 47 52.979 -00 12 21.34 21.12 V 645 – Apache Point-Sloan Digital Sky Survey MPS 508621
2001 10 14.293382 23 47 52.873 -00 12 22.84 21.89   645 – Apache Point-Sloan Digital Sky Survey MPS 508621
2007 11 04.37200 04 20 50.74 +10 48 30.8 20.1 V G96 – Mt. Lemmon Survey MPS 508621
2007 11 04.38063 04 20 50.42 +10 48 27.2 20.3 V G96 – Mt. Lemmon Survey MPS 508621
2007 11 04.41314 04 20 49.12 +10 48 16.8 20.7 V G96 – Mt. Lemmon Survey MPS 508621
2007 11 04.42477 04 20 48.69 +10 48 13.1 20.2 V G96 – Mt. Lemmon Survey MPS 508621
2010 04 17.34703 14 14 31.12 -07 48 29.9 21.9 V G96 – Mt. Lemmon Survey MPS 508621
2010 04 17.35450 14 14 30.84 -07 48 27.8 20.9 V G96 – Mt. Lemmon Survey MPS 508621
2010 04 17.36205 14 14 30.44 -07 48 24.3 21.0 V G96 – Mt. Lemmon Survey MPS 508621
2010 04 17.36957 14 14 30.08 -07 48 21.4 21.0 V G96 – Mt. Lemmon Survey MPS 508621
2012 09 15.41048 02 05 01.73 +10 03 30.9 21.2 V 691 – Steward Observatory, Kitt Peak-Spacewatch MPS 446103
2012 09 15.42824 02 05 01.48 +10 03 25.4 20.7 V 691 – Steward Observatory, Kitt Peak-Spacewatch MPS 446103
2012 09 15.44687 02 05 01.18 +10 03 20.0 21.0 V 691 – Steward Observatory, Kitt Peak-Spacewatch MPS 446103
2012 10 08.423862 01 53 50.589 +07 33 17.37 20.4 r F51 – Pan-STARRS 1, Haleakala MPS 435717
2012 10 08.435960 01 53 50.093 +07 33 11.85 20.3 r F51 – Pan-STARRS 1, Haleakala MPS 435717
2012 10 08.501312 01 53 47.378 +07 32 42.74 20.2 i F51 – Pan-STARRS 1, Haleakala MPS 435717
2012 10 08.514429 01 53 46.823 +07 32 36.90 20.2 i F51 – Pan-STARRS 1, Haleakala MPS 435717
2012 10 16.39830 01 48 17.85 +06 33 24.8 20.2 V G96 – Mt. Lemmon Survey MPS 435717
2012 10 16.40462 01 48 17.53 +06 33 22.5 19.9 V G96 – Mt. Lemmon Survey MPS 435717
2012 10 16.41098 01 48 17.28 +06 33 19.0 20.0 V G96 – Mt. Lemmon Survey MPS 435717
2012 10 16.41737 01 48 17.02 +06 33 16.0 20.0 V G96 – Mt. Lemmon Survey MPS 435717
2012 11 06.286733 01 33 55.604 +04 10 00.14 20.6 w F51 – Pan-STARRS 1, Haleakala MPS 446103
2012 11 06.301619 01 33 55.049 +04 09 55.22 20.6 w F51 – Pan-STARRS 1, Haleakala MPS 446103
2012 11 06.316581 01 33 54.488 +04 09 50.01 20.7 w F51 – Pan-STARRS 1, Haleakala MPS 446103
2012 11 06.331527 01 33 53.931 +04 09 44.80 20.6 w F51 – Pan-STARRS 1, Haleakala MPS 446103
2015 02 27.54433 12 46 54.020 -06 23 27.44 21.8 w F51 – Pan-STARRS 1, Haleakala MPS 583360
2015 02 27.56942 12 46 53.373 -06 23 20.51 21.7 w F51 – Pan-STARRS 1, Haleakala MPS 583360
2015 02 27.58195 12 46 53.053 -06 23 17.21 21.8 w F51 – Pan-STARRS 1, Haleakala MPS 583360
2015 03 16.41111 12 37 49.68 -04 48 59.8 21.6 V G96 – Mt. Lemmon Survey MPS 587218
2015 03 16.41622 12 37 49.50 -04 48 57.9 22.0 V G96 – Mt. Lemmon Survey MPS 587218
2015 03 16.42132 12 37 49.28 -04 48 55.7 21.4 V G96 – Mt. Lemmon Survey MPS 587218
2015 03 16.42642 12 37 49.07 -04 48 53.3 21.9 V G96 – Mt. Lemmon Survey MPS 587218
2015 03 24.28852 12 32 33.79 -03 56 31.3 21.1 V G96 – Mt. Lemmon Survey MPS 592465
2015 03 24.29362 12 32 33.57 -03 56 28.9 21.1 V G96 – Mt. Lemmon Survey MPS 592465
2015 03 24.29873 12 32 33.32 -03 56 27.0 21.4 V G96 – Mt. Lemmon Survey MPS 592465
2015 03 24.30383 12 32 33.13 -03 56 24.0 21.3 V G96 – Mt. Lemmon Survey MPS 592465
2015 03 25.30168 12 31 51.73 -03 49 34.0 21.2 V G96 – Mt. Lemmon Survey MPS 592465
2015 03 25.30314 12 31 51.68 -03 49 33.5 21.2 V G96 – Mt. Lemmon Survey MPS 592465
2015 03 25.30458 12 31 51.60 -03 49 32.7 21.1 V G96 – Mt. Lemmon Survey MPS 592465
2015 03 25.30604 12 31 51.57 -03 49 32.0 21.3 V G96 – Mt. Lemmon Survey MPS 592465
2015 03 25.30749 12 31 51.50 -03 49 31.5 21.3 V G96 – Mt. Lemmon Survey MPS 592465
2015 04 11.20804 12 20 20.29 -01 54 00.8 22.1 V G96 – Mt. Lemmon Survey MPS 598542
2015 04 11.21281 12 20 20.08 -01 53 58.9 21.4 V G96 – Mt. Lemmon Survey MPS 598542
2015 04 11.21755 12 20 19.89 -01 53 57.0 21.6 V G96 – Mt. Lemmon Survey MPS 598542
2015 04 11.22233 12 20 19.69 -01 53 55.9 21.1 V G96 – Mt. Lemmon Survey MPS 598542
2015 04 13.38267 12 18 58.167 -01 39 57.08 21.4 w F51 – Pan-STARRS 1, Haleakala MPS 598542
2015 04 13.39353 12 18 57.742 -01 39 52.79 21.3 w F51 – Pan-STARRS 1, Haleakala MPS 598542
2015 04 13.40435 12 18 57.323 -01 39 48.72 21.4 w F51 – Pan-STARRS 1, Haleakala MPS 598542
2015 04 13.41519 12 18 56.898 -01 39 44.66 21.3 w F51 – Pan-STARRS 1, Haleakala MPS 598542
2016 06 07.32846 17 21 35.05 -09 47 51.3 20.9 V G96 – Mt. Lemmon Survey MPS 713892
2016 06 07.33530 17 21 34.73 -09 47 49.5 20.7 V G96 – Mt. Lemmon Survey MPS 713892
2016 06 07.34212 17 21 34.39 -09 47 48.8 21.9 V G96 – Mt. Lemmon Survey MPS 713892
2016 06 07.34895 17 21 34.07 -09 47 49.7 20.8 V G96 – Mt. Lemmon Survey MPS 713892
2016 07 05.25568 17 01 01.10 -09 27 34.5 20.6 V G96 – Mt. Lemmon Survey MPS 717443
2016 07 05.26076 17 01 00.89 -09 27 34.7 20.6 V G96 – Mt. Lemmon Survey MPS 717443
2016 07 05.26586 17 01 00.74 -09 27 34.9 20.6 V G96 – Mt. Lemmon Survey MPS 717443
2016 07 05.27094 17 01 00.54 -09 27 33.0 21.3 V G96 – Mt. Lemmon Survey MPS 717443
2017 08 16.42502 23 36 51.398 +03 44 33.85 21.2 w F51 – Pan-STARRS 1, Haleakala MPS 812039
2017 08 16.43645 23 36 51.103 +03 44 30.78 21.2 w F51 – Pan-STARRS 1, Haleakala MPS 812039
2017 08 16.44790 23 36 50.809 +03 44 27.79 21.2 w F51 – Pan-STARRS 1, Haleakala MPS 812039
2017 08 16.45933 23 36 50.510 +03 44 24.83 21.1 w F51 – Pan-STARRS 1, Haleakala MPS 812039
2017 09 14.41066 23 19 43.973 +00 37 13.13 20.4 w F51 – Pan-STARRS 1, Haleakala MPS 816986
2017 09 14.42265 23 19 43.461 +00 37 07.42 20.4 w F51 – Pan-STARRS 1, Haleakala MPS 816986
2017 09 14.43459 23 19 42.946 +00 37 01.80 20.5 w F51 – Pan-STARRS 1, Haleakala MPS 816986
2017 09 14.44652 23 19 42.443 +00 36 56.17 20.4 w F51 – Pan-STARRS 1, Haleakala MPS 816986
2017 09 16.40938 23 18 22.527 +00 21 26.37 20.5 w F51 – Pan-STARRS 1, Haleakala MPS 818959
2017 09 16.42013 23 18 22.074 +00 21 21.29 20.5 w F51 – Pan-STARRS 1, Haleakala MPS 818959
2017 09 16.43187 23 18 21.572 +00 21 15.68 20.4 w F51 – Pan-STARRS 1, Haleakala MPS 818959
2017 09 16.44256 23 18 21.124 +00 21 10.58 20.4 w F51 – Pan-STARRS 1, Haleakala MPS 818959
2017 09 17.38086 23 17 43.217 +00 13 43.88 20.4 w F51 – Pan-STARRS 1, Haleakala MPS 818959
2017 09 17.39258 23 17 42.724 +00 13 38.36 20.4 w F51 – Pan-STARRS 1, Haleakala MPS 818959
2017 09 25.37885 23 12 32.122 -00 49 37.75 20.6 w F51 – Pan-STARRS 1, Haleakala MPS 823325
2017 09 25.38946 23 12 31.713 -00 49 42.71 20.7 w F51 – Pan-STARRS 1, Haleakala MPS 823325
2017 09 25.41067 23 12 30.898 -00 49 52.65 20.6 w F51 – Pan-STARRS 1, Haleakala MPS 823325
2017 09 28.25642 23 10 48.91 -01 11 56.8 21.1 V G96 – Mt. Lemmon Survey MPS 823325
2017 09 28.26214 23 10 48.68 -01 11 59.9 21.4 V G96 – Mt. Lemmon Survey MPS 823325
2017 09 28.27405 23 10 48.27 -01 12 05.3 21.4 V G96 – Mt. Lemmon Survey MPS 823325
2017 09 28.28325 23 10 47.97 -01 12 09.5 21.0 V G96 – Mt. Lemmon Survey MPS 823325
2017 09 28.42443 23 10 43.022 -01 13 13.74 20.7 w F51 – Pan-STARRS 1, Haleakala MPS 823325
2017 09 28.43619 23 10 42.594 -01 13 19.07 20.7 w F51 – Pan-STARRS 1, Haleakala MPS 823325
2017 09 28.44795 23 10 42.163 -01 13 24.68 20.8 w F51 – Pan-STARRS 1, Haleakala MPS 823325
2017 09 28.45971 23 10 41.742 -01 13 30.02 20.6 w F51 – Pan-STARRS 1, Haleakala MPS 823325
2017 10 17.19475 23 02 44.35 -03 19 46.7 21.4 G G96 – Mt. Lemmon Survey MPS 828104
2017 10 17.20007 23 02 44.25 -03 19 48.2 21.2 G G96 – Mt. Lemmon Survey MPS 828104
2017 10 17.20531 23 02 44.18 -03 19 50.5 20.9 G G96 – Mt. Lemmon Survey MPS 828104
2017 10 17.21082 23 02 44.10 -03 19 51.8 21.4 G G96 – Mt. Lemmon Survey MPS 828104
2017 11 13.27259 23 04 16.511 -04 50 05.87 21.5 w F51 – Pan-STARRS 1, Haleakala MPS 839056
2017 11 13.28455 23 04 16.750 -04 50 06.67 21.8 w F51 – Pan-STARRS 1, Haleakala MPS 839056
2017 11 13.29653 23 04 16.993 -04 50 07.24 21.7 w F51 – Pan-STARRS 1, Haleakala MPS 839056
2017 11 13.30858 23 04 17.229 -04 50 08.19 21.6 w F51 – Pan-STARRS 1, Haleakala MPS 839056
2018 12 13.69843 05 53 06.50 +09 35 19.1 20.1 R D29 – Purple Mountain Observatory, XuYi Station MPS 942453
2018 12 13.71257 05 53 05.81 +09 35 18.1 20.8 R D29 – Purple Mountain Observatory, XuYi Station MPS 942453
